Weather History for Naples, FL

Change the Weather History Date:

Monday, January 28, 2013

  Actual Average Record
Temperature  
Mean Temperature 73 °F 65 °F  
Max Temperature 83 °F 75 °F 87 °F (1975)
Min Temperature 63 °F 55 °F 32 °F (1986)
Degree Days  
Heating Degree Days 0 3  
Month to date heating degree days 7 97  
Since 1 July heating degree days 56 175  
Cooling Degree Days 8 2  
Month to date cooling degree days 175 82  
Year to date cooling degree days 175 82  
Growing Degree Days 22 (Base 50)    
Moisture  
Dew Point 61 °F    
Average Humidity 70    
Maximum Humidity 93    
Minimum Humidity 47    
Precipitation  
Precipitation 0.00 in 0.07 in 0.62 in (1979)
Month to date precipitation 0.11 1.62  
Year to date precipitation 0.11 1.62  
Snow  
Snow 0.00 in - - ()
Month to date snowfall 0.0  
Since 1 July snowfall 0.0  
Snow Depth 0.00 in    
Sea Level Pressure  
Sea Level Pressure 30.24 in    
Wind  
Wind Speed 8 mph (East)    
Max Wind Speed 17 mph    
Max Gust Speed 23 mph    
Visibility 10 miles    
Events      
T = Trace of Precipitation, MM = Missing Value Source: NWS Daily Summary

Daily Weather History Graph

Daily Weather History Graph

Search for Another Location

Airport:

Trip Planner

Search our weather history database for the weather conditions in past years. The results will help you decide how hot, cold, wet, or windy it might be!

Date:

Astronomy

Jan. 28, 2013 Rise Set
Actual Time 7:13 AM EST 6:07 PM EST
Civil Twilight 6:48 AM EST 6:31 PM EST
Nautical Twilight 6:20 AM EST 6:59 PM EST
Astronomical Twilight 5:53 AM EST 7:27 PM EST
Moon 7:44 PM EST (1/28) 7:51 AM EST (1/28)
Length of Visible Light 11h 43m
Length of Day
10h 54m
Full, 98% of the Moon is Illuminated
Jan 28
Full
Feb 3
Last Quarter
Feb 10
New
Feb 17
First Quarter
Feb 25
Full

Hourly Weather History & Observations

Time (EST) Temp. Heat Index Dew Point Humidity Pressure Visibility Wind Dir Wind Speed Gust Speed Precip Events Conditions
12:53 AM 64.9 °F - 59.0 °F 81% 30.25 in 10.0 mi ENE 4.6 mph - N/A   Clear
1:53 AM 64.0 °F - 59.0 °F 84% 30.25 in 10.0 mi ENE 5.8 mph - N/A   Clear
2:53 AM 63.0 °F - 59.0 °F 87% 30.24 in 10.0 mi ENE 6.9 mph - N/A   Clear
3:53 AM 64.0 °F - 61.0 °F 90% 30.24 in 9.0 mi ENE 9.2 mph - N/A   Partly Cloudy
4:53 AM 64.0 °F - 61.0 °F 90% 30.23 in 8.0 mi ENE 6.9 mph - N/A   Clear
5:53 AM 64.9 °F - 62.1 °F 90% 30.24 in 8.0 mi ENE 8.1 mph - N/A   Clear
6:53 AM 63.0 °F - 61.0 °F 93% 30.27 in 8.0 mi ENE 5.8 mph - N/A   Clear
7:53 AM 64.0 °F - 62.1 °F 93% 30.28 in 6.0 mi ENE 6.9 mph - N/A   Clear
8:53 AM 70.0 °F - 63.0 °F 78% 30.29 in 8.0 mi East 6.9 mph - N/A   Clear
9:53 AM 75.0 °F - 64.0 °F 69% 30.30 in 10.0 mi East 12.7 mph - N/A   Clear
10:53 AM 78.1 °F - 63.0 °F 60% 30.30 in 10.0 mi ESE 13.8 mph 19.6 mph N/A   Clear
11:53 AM 80.1 °F 81.7 °F 64.0 °F 58% 30.28 in 10.0 mi ESE 11.5 mph - N/A   Partly Cloudy
12:53 PM 79.0 °F - 62.1 °F 56% 30.25 in 10.0 mi ESE 10.4 mph - N/A   Scattered Clouds
1:53 PM 81.0 °F 82.2 °F 63.0 °F 54% 30.22 in 10.0 mi East 11.5 mph - N/A   Mostly Cloudy
2:53 PM 81.0 °F 81.9 °F 62.1 °F 52% 30.20 in 10.0 mi ESE 9.2 mph - N/A   Mostly Cloudy
3:53 PM 82.0 °F 82.7 °F 61.0 °F 49% 30.19 in 10.0 mi SE 12.7 mph - N/A   Partly Cloudy
4:53 PM 80.1 °F 81.1 °F 61.0 °F 52% 30.19 in 10.0 mi ESE 8.1 mph - N/A   Scattered Clouds
5:53 PM 79.0 °F - 59.0 °F 50% 30.20 in 10.0 mi ESE 6.9 mph - N/A   Scattered Clouds
6:53 PM 75.9 °F - 57.9 °F 54% 30.22 in 10.0 mi East 6.9 mph - N/A   Clear
7:53 PM 73.9 °F - 60.1 °F 62% 30.23 in 10.0 mi East 8.1 mph - N/A   Partly Cloudy
8:53 PM 72.0 °F - 61.0 °F 68% 30.24 in 10.0 mi East 6.9 mph - N/A   Mostly Cloudy
9:53 PM 71.1 °F - 62.1 °F 73% 30.25 in 10.0 mi East 6.9 mph - N/A   Scattered Clouds
10:53 PM 69.1 °F - 62.1 °F 78% 30.24 in 10.0 mi East 4.6 mph - N/A   Clear
11:53 PM 66.0 °F - 61.0 °F 84% 30.23 in 10.0 mi ENE 5.8 mph - N/A   Clear